Content
SEND FEEDBACK

Daily
Averages
Monthly
Summary
United States of America

DIXVILLE NOTCH, NEW HAMPSHIRE


Home > North America > United States > New Hampshire
Elevation: 521 meters     Latitude: 44 52N     Longitude: 071 20W

WEATHER
 
SELECT A DAY
Number of Records: 240,578;   Date Range: 11/28/95 - 8/28/14
 
SHARE

PRINT THIS DATA

[ ← Previous Day ]
WEATHER ALMANAC - 31 JANUARY, 2013
[ Next Day → ]
[ °F ]   °C
Weather ElementAverageHighLow
Temperature3.6 °C12.8 °C (5:52 am)-4.4 °C (9:52 pm)
Dewpoint0.1 °C11 °C (6:47 am)-12.8 °C (8:52 pm)
Humidity79 %100 % (2:07 am)49 % (7:52 pm)
Barometer984.4 hPa993.9 hPa (9:52 pm)974.9 hPa (8:52 am)
Wind Speed14.5 km/h29.6 km/h (9:30 am)
Wind Gust57.5 km/h (9:30 am)
Weather ElementAverage
Visibility7.2 km
Wind DirectionSSW (202.7 °)

Weather ElementTotal
Precipitation44.96 mm
Heating Degree Days14.2 (Base 18.3)
Averaged from 56 records on 31 January, 2013
WEATHER CONDITIONS BREAKOUT
WIND DIRECTION BREAKOUT
WEATHER BY HOUR - 31 JANUARY, 2013
[ °F ]   °C
Local TimeTemperatureDewpointHumidityBarometerVisibilityWind DirectionWind SpeedGust SpeedPrecipitationEventsConditions
12:41 AM3 °C2 °C93 %991.9 hPa0.3 kmCalm0 mmFogFog
12:52 AM3.9 °C2.8 °C93 %992.2 hPa0.3 kmCalm0 mmFog-RainLight Rain
12:59 AM3 °C2 °C93 %991.5 hPa0.8 kmCalm0 mmFogFog
1:52 AM3.9 °C2.8 °C93 %990.2 hPa1.6 kmCalm0.51 mmOvercast
1:59 AM5 °C4 °C93 %988.8 hPa3.2 kmSE (130°)14.8 km/h0 mmRainLight Rain
2:07 AM7 °C7 °C100 %989.2 hPa12.9 kmSSW (210°)5.6 km/h0 mmRainLight Rain
2:20 AM6 °C6 °C100 %988.1 hPa2.9 kmCalm0.51 mmRainLight Rain
2:27 AM9 °C8 °C93 %988.1 hPa4.8 kmSouth (170°)9.3 km/h0.51 mmRainLight Rain
2:52 AM8.9 °C7.8 °C93 %987.8 hPa12.9 kmSE (140°)13 km/h1.02 mmRainLight Rain
3:52 AM8.9 °C7.8 °C93 %984.1 hPa9.7 kmSouth (170°)7.4 km/h2.29 mmRainLight Rain
4:52 AM10 °C8.9 °C93 %981.4 hPa16.1 kmSouth (170°)7.4 km/h0.51 mmRainLight Rain
5:52 AM12.8 °C10 °C83 %978.3 hPa16.1 kmSouth (170°)25.9 km/h51.8 km/h0.25 mmRainLight Rain
6:47 AM12 °C11 °C94 %978 hPa4 kmSW (220°)14.8 km/h4.06 mmRainHeavy Rain
6:52 AM12.8 °C10.6 °C86 %978.3 hPa4 kmSW (220°)13 km/h29.6 km/h4.57 mmRainRain
7:02 AM12 °C11 °C94 %977.7 hPa2.4 kmWSW (240°)14.8 km/h31.5 km/h1.78 mmRainHeavy Rain
7:07 AM12 °C10 °C88 %977.3 hPa3.2 kmSW (220°)14.8 km/h31.5 km/h2.03 mmRainRain
7:16 AM12 °C9 °C82 %977.3 hPa11.3 kmSouth (190°)16.7 km/h2.29 mmRainLight Rain
7:52 AM11.1 °C9.4 °C89 %977 hPa16.1 kmSSE (160°)11.1 km/h2.54 mmRainLight Rain
8:52 AM10 °C8.9 °C93 %974.9 hPa9.7 kmSouth (180°)5.6 km/h0.25 mmOvercast
9:30 AM9 °C7 °C87 %976.3 hPa2.9 kmWest (280°)29.6 km/h57.5 km/h1.02 mmRainLight Rain
9:33 AM7 °C5 °C87 %977.3 hPa1.3 kmWest (270°)20.4 km/h57.5 km/h2.54 mmRainHeavy Rain
9:43 AM7 °C4 °C81 %977.3 hPa1.6 kmWest (270°)11.1 km/h46.3 km/h4.06 mmRainRain
9:52 AM6.1 °C4.4 °C89 %978.7 hPa4.8 kmVariable11.1 km/h29.6 km/h4.06 mmRainLight Rain
10:02 AM6 °C3 °C81 %978.3 hPa4.8 kmWest (280°)16.7 km/h31.5 km/h0.25 mmRainLight Rain
10:07 AM6 °C3 °C81 %979 hPa4 kmVariable9.3 km/h33.3 km/h0.51 mmRainLight Rain
10:52 AM3.9 °C1.7 °C86 %979.7 hPa6.4 kmWNW (300°)14.8 km/h29.6 km/h3.05 mmRainLight Rain
11:42 AM4 °C0 °C75 %979.3 hPa16.1 kmWest (280°)20.4 km/h42.6 km/h0.51 mmOvercast
11:52 AM3.9 °C0 °C76 %980.4 hPa16.1 kmWest (270°)13 km/h33.3 km/h0.51 mmRainLight Rain
12:09 PM4 °C0 °C75 %980 hPa16.1 kmWNW (290°)13 km/h0 mmRainLight Rain
12:15 PM2 °C0 °C87 %980.7 hPa2.9 kmWNW (300°)24.1 km/h48.1 km/h0.25 mmSnowLight Snow
12:19 PM2 °C-1 °C81 %980.7 hPa1.3 kmNW (310°)20.4 km/h48.1 km/h0.51 mmSnowLight Snow
12:26 PM1 °C0 °C93 %981 hPa0.8 kmWNW (300°)14.8 km/h44.4 km/h1.02 mmFog-SnowSnow
12:52 PM1.7 °C-0.6 °C85 %983.1 hPa1.6 kmWest (260°)9.3 km/h1.78 mmSnowLight Snow
12:56 PM2 °C-1 °C81 %982.1 hPa3.2 kmVariable9.3 km/h0 mmSnowLight Snow
1:03 PM2 °C-1 °C81 %982.4 hPa14.5 kmWest (270°)16.7 km/h27.8 km/h0 mmOvercast
1:14 PM2 °C-2 °C75 %982.4 hPa16.1 kmWest (270°)13 km/h40.7 km/h0 mmMostly Cloudy
1:52 PM2.2 °C-2.8 °C70 %983.4 hPa16.1 kmWSW (250°)9.3 km/h0 mmSnowLight Snow
2:52 PM1.7 °C-5 °C61 %984.8 hPa12.9 kmWest (270°)25.9 km/h42.6 km/h0 mmSnowLight Snow
3:52 PM0 °C-5.6 °C66 %986.5 hPa4 kmWSW (250°)20.4 km/h42.6 km/h0 mmSnowLight Snow
4:10 PM0 °C-7 °C60 %986.1 hPa12.9 kmWest (270°)24.1 km/h50.1 km/h0 mmSnowLight Snow
4:52 PM0 °C-8.9 °C52 %987.8 hPa16.1 kmWest (280°)20.4 km/h42.6 km/h0 mmOvercast
5:33 PM-1 °C-7 °C64 %987.8 hPa4 kmWest (270°)20.4 km/h44.4 km/h0 mmSnowLight Snow
5:40 PM-1 °C-8 °C60 %988.1 hPa9.7 kmWest (270°)13 km/h44.4 km/h0 mmSnowLight Snow
5:52 PM-1.1 °C-8.9 °C56 %988.8 hPa14.5 kmWest (270°)16.7 km/h50.1 km/h0 mmOvercast
6:21 PM-2 °C-8 °C64 %988.8 hPa2.9 kmWest (260°)25.9 km/h46.3 km/h0 mmSnowLight Snow
6:30 PM-2 °C-7 °C69 %989.2 hPa1.9 kmWest (270°)20.4 km/h40.7 km/h0 mmSnowLight Snow
6:39 PM-3 °C-6 °C80 %989.5 hPa0.8 kmWest (270°)18.5 km/h44.4 km/h0 mmSnowSnow
6:47 PM-3 °C-6 °C80 %989.5 hPa0.3 kmWest (270°)13 km/h38.9 km/h0.25 mmFog-SnowHeavy Snow
6:52 PM-3.3 °C-5.6 °C84 %990.5 hPa0.3 kmVariable11.1 km/h37 km/h0.25 mmFog-SnowHeavy Snow
7:03 PM-3 °C-6 °C80 %989.8 hPa0.8 kmVariable11.1 km/h33.3 km/h0.25 mmSnowSnow
7:17 PM-3 °C-9 °C64 %989.8 hPa2.9 kmWest (270°)18.5 km/h55.5 km/h0.25 mmSnowLight Snow
7:21 PM-3 °C-10 °C59 %989.8 hPa6.4 kmWSW (250°)14.8 km/h55.5 km/h0.25 mmMostly Cloudy
7:28 PM-3 °C-11 °C55 %990.2 hPa11.3 kmWest (270°)25.9 km/h50.1 km/h0.25 mmSnowLight Snow
7:52 PM-2.8 °C-12.2 °C49 %991.5 hPa11.3 kmWSW (240°)29.6 km/h46.3 km/h0.25 mmPartly Cloudy
8:52 PM-3.3 °C-12.8 °C49 %992.2 hPa16.1 kmWest (280°)16.7 km/h50.1 km/h0 mmOvercast
9:52 PM-4.4 °C-12.2 °C55 %993.9 hPa16.1 kmWNW (300°)13 km/h27.8 km/hMostly Cloudy
Hourly data recorded from KBML, located 0 kilometers away from Dixville Notch, New Hampshire







STORIES FROM OUR PARTNERS